Location: Harbor Island
(32.3990°N, 80.4435°W)
Time: 01:53:51
(UTC-04:00)

Daily predictions for brighter satellites

Satellite Brightness Start Highest point End
(mag) Time Altitude Azimuth Time Altitude Azimuth Time Altitude Azimuth
Nadezhda 4 Rocket 4.4 00:08:39 56° WNW 00:08:39 56° WNW 00:14:27 10° N
COSMOS 2406 4.0 00:09:28 48° NW 00:09:28 48° NW 00:14:13 10° N
USA 238 DEB 4.5 00:13:44 39° W 00:15:44 48° NW 00:22:33 10° NNE
USA 238 4.5 00:13:55 39° W 00:15:50 49° NW 00:22:40 10° NNE
Terra 4.0 00:22:46 20° WNW 00:22:46 20° WNW 00:24:49 10° NW
CZ-4C R/B 3.8 00:26:52 26° NE 00:26:52 26° NE 00:29:24 10° NE
H-2A R/B 4.4 00:38:18 14° WNW 00:38:18 14° WNW 00:39:48 10° NW
Cosmos 1943 Rocket 4.0 00:43:49 10° NW 00:46:20 23° WNW 00:46:20 23° WNW
NOSS 3-2 (C) 4.3 00:51:59 46° NNE 00:51:59 46° NNE 00:56:30 10° NNE
Cosmos 2344 3.7 01:17:28 69° NE 01:17:28 69° NE 01:24:43 10° NNE
CZ-2C R/B 4.2 01:13:14 10° NNE 01:16:07 30° NE 01:16:07 30° NE
Cosmos 1980 Rocket 4.0 01:53:56 10° N 01:58:23 23° ENE 01:58:50 23° ENE
USA 215 3.9 02:01:16 10° NE 02:05:58 46° ENE 02:05:58 46° ENE
Cosmos 2082 Rocket 3.5 02:14:28 34° NNW 02:14:28 34° NNW 02:18:14 10° N
CZ-4C R/B 4.4 02:12:00 15° NW 02:12:55 16° NW 02:16:20 10° N
Lacrosse 5 4.0 02:09:43 10° NNW 02:13:41 23° NE 02:14:59 21° ENE
Cosmos 1697 Rocket 3.6 02:13:34 10° NNW 02:17:38 44° NNE 02:17:38 44° NNE
Cosmos 1833 Rocket 3.9 02:23:37 36° NNW 02:23:37 36° NNW 02:27:28 10° N
CZ-2C R/B 4.4 02:30:16 37° NNW 02:30:16 37° NNW 02:33:40 10° NNW
ATLAS 5 CENTAUR R/B 4.3 02:32:26 13° E 02:32:26 13° E 02:33:30 10° ENE
CENTAUR R/B 2.9 02:37:39 54° NNW 02:37:39 54° NNW 02:43:31 10° NNE
Resurs 1-4 Rocket 4.5 02:54:01 10° ENE 02:56:27 13° E 02:57:57 12° ESE
SL-16 R/B 3.9 02:55:17 10° N 03:00:08 28° ENE 03:03:59 14° ESE
OAO 3 Rocket 4.3 03:13:19 38° ENE 03:13:19 38° ENE 03:16:21 10° ENE
Cosmos 2322 Rocket 3.3 03:07:23 10° N 03:12:37 39° ENE 03:15:23 24° ESE
Cosmos 1777 Rocket 4.3 03:14:31 67° NE 03:14:31 67° NE 03:19:08 10° NNE
CBERS-1 4.1 03:21:17 10° N 03:25:51 68° NNW 03:25:51 68° NNW
SL-08 R/B 3.7 03:27:42 61° NNW 03:27:42 61° NNW 03:31:45 10° NNW
Lacrosse 5 rocket 3.6 03:29:57 10° NNW 03:33:47 28° NE 03:37:42 10° ESE
ARIANE 5 R/B 3.1 03:29:55 10° NNE 03:34:48 46° E 03:35:28 43° ESE
IRS-1D 4.4 03:31:41 10° NNE 03:36:46 44° E 03:37:56 38° SE
H-2A R/B 3.9 02:15:43 10° W 03:37:41 72° SSW 03:43:36 10° ESE
ADEOS 3.4 03:33:23 10° N 03:38:37 83° WNW 03:38:40 83° W
Cosmos 1980 Rocket 3.3 03:37:14 10° NW 03:40:33 30° WNW 03:40:33 30° WNW
Cosmos 2360 Rocket 4.3 03:38:39 10° N 03:43:11 24° ENE 03:47:42 10° ESE
CZ-2D R/B 3.1 03:38:38 10° NNE 03:43:31 39° E 03:45:19 30° SE
SL-16 R/B 3.6 03:38:13 10° SE 03:44:01 42° ENE 03:49:52 10° N
USA 215 4.3 03:44:38 10° NNE 03:50:24 35° NW 03:53:18 24° W
NPP 4.5 03:46:12 10° N 03:51:03 35° WNW 03:51:03 35° WNW
Cosmos 2219 4.3 03:50:55 28° SSE 03:53:08 38° ESE 03:58:23 10° NE
Lacrosse 5 3.3 03:51:58 10° NW 03:54:01 24° WNW 03:54:01 24° WNW
Cosmos 1709 Rocket 4.2 03:59:11 47° WSW 04:00:11 51° W 04:06:18 10° N
Meteor 1-4 Rocket 4.4 03:56:52 10° NNW 03:58:39 24° NW 03:58:39 24° NW
Cosmos 2112 Rocket 4.3 04:05:43 10° N 04:10:53 65° ENE 04:16:01 10° SSE
Okean O Rocket 3.2 04:08:22 10° NE 04:12:16 30° E 04:14:56 17° SSE
SEDSat Delta rocket 3.9 04:10:50 29° W 04:14:31 80° S 04:21:09 10° ESE
ATLAS 5 CENTAUR R/B 2.2 04:13:59 43° W 04:14:50 48° NW 04:19:47 10° NNE
Cosmos 1455 3.8 04:12:03 10° NNW 04:13:56 23° NW 04:13:56 23° NW
H-2A R/B 3.4 04:14:58 27° W 04:18:28 85° S 04:52:58 10° ESE
Cosmos 1833 4.4 04:22:23 39° WSW 04:24:15 56° WNW 04:29:54 10° N
Cosmos 304 Rocket 3.6 04:23:36 10° NNW 04:28:25 82° WSW 04:32:03 18° SSE
Cosmos 2221 Rocket 3.6 04:28:26 10° NNW 04:32:54 63° W 04:34:37 36° SSW
Cosmos 1626 4.5 04:34:40 12° WNW 04:34:40 12° WNW 04:35:28 10° NW
Cosmos 1869 Rocket 3.9 04:35:04 39° WSW 04:35:56 45° W 04:40:10 10° N
Resurs 1-4 Rocket 2.2 04:31:22 10° N 04:36:35 59° WNW 04:39:02 31° SW
Cosmos 2298 Rocket 4.0 04:35:52 33° SW 04:38:14 67° WNW 04:43:34 10° N
UNKNOWN OBJECT B 2.7 04:35:47 10° N 04:39:35 66° WNW 04:40:48 40° SW
SL-16 R/B 2.9 04:39:12 10° NW 04:44:09 32° WSW 04:45:43 27° SW
ISS -1.3 04:42:42 10° NNW 04:45:40 31° NE 04:48:37 10° ESE
CZ-2C R/B 4.1 04:42:45 10° SSE 04:47:09 65° ENE 04:51:39 10° N
SME Rocket 4.1 04:40:45 10° SSE 04:48:28 82° ENE 04:53:31 10° NNW
UNK 3.9 04:47:01 25° SSW 04:49:25 49° W 04:53:52 10° NNW
Meteor 2-3 Rocket 3.7 04:45:05 18° S 04:49:26 83° W 04:55:16 10° N
OAO 1 Rocket 4.4 04:45:01 14° WNW 04:49:42 67° SSW 04:55:01 10° ESE
USA 229 DEB 3.8 04:46:06 25° SW 04:50:23 67° WNW 04:57:21 10° NNE
USA 229 3.8 04:46:10 25° SW 04:50:29 68° WNW 04:57:28 10° NNE
Cosmos 990 Rocket 4.3 04:50:07 14° S 04:54:28 67° ESE 04:59:36 10° NNE
OAO 3 Rocket 3.3 04:51:09 12° WNW 04:55:26 70° N 05:00:09 10° E
Cosmos 2322 Rocket 3.3 04:52:06 10° NW 04:56:19 22° W 04:57:05 21° WSW
Cosmos 2341 Rocket 4.3 04:50:23 10° S 04:56:37 70° E 05:02:55 10° N
Cosmos 1680 Rocket 4.1 04:53:40 10° NW 04:58:19 34° W 05:01:25 18° SSW
SL-24 DEB 4.2 04:53:51 10° N 04:58:28 71° W 05:02:15 15° SSW
AVUM R/B 4.1 04:57:44 19° SSE 04:58:32 24° ESE 05:00:21 10° NE
ASTRO F (AKARI) 4.2 04:57:07 17° S 04:59:35 65° WSW 05:02:48 10° NNW
ATLAS CENTAUR R/B 3.2 04:57:16 10° NNW 05:01:31 36° NE 05:05:25 10° SE
CZ-2D R/B 3.8 04:59:35 10° N 05:03:33 47° WNW 05:05:55 21° SW
GOES 2 Rocket 3.7 05:03:20 22° SW 05:05:37 38° S 05:09:31 10° E
Cosmos 2219 Rocket 4.4 05:01:05 10° N 05:05:49 28° ENE 05:10:30 10° ESE
Coronas F rocket 3.2 05:04:27 10° SSE 05:06:52 29° E 05:09:19 10° NNE
Cosmos 1733 Rocket 2.9 05:05:03 12° S 05:09:03 81° W 05:13:25 10° N
Thor Agena Rocket 3.6 05:04:35 10° SSE 05:09:53 89° ENE 05:15:12 10° NNW
GPS 2-05 Rocket1 3.7 05:06:56 12° WNW 05:09:55 46° N 05:13:16 10° ENE
CZ-4B R/B 3.0 05:06:30 10° NNE 05:10:36 88° E 05:14:53 10° SSW
NOSS 3-1 (A) 4.5 05:05:48 10° S 05:11:08 40° ESE 05:16:52 10° NE
PSLV R/B 4.2 05:07:45 10° N 05:11:34 48° WNW 05:14:30 16° SW
Lacrosse 5 rocket 2.2 05:09:04 10° WNW 05:13:04 32° WSW 05:17:07 10° S
Cosmos 2154 Rocket 4.1 05:07:13 10° SSW 05:13:29 66° W 05:19:48 10° N
ARIANE 5 R/B 4.2 05:10:24 10° NNW 05:13:29 16° WNW 05:15:49 12° W
IRS-1C Rocket 4.5 05:08:30 10° N 05:13:32 47° WNW 05:17:49 14° SW
Nadezhda 3 Rocket 3.9 05:09:22 10° N 05:15:33 85° W 05:21:41 10° S
Cosmos 220 Rocket 3.9 05:12:37 14° SSW 05:16:15 77° WNW 05:20:32 10° NNE
CZ-3A R/B 4.1 05:17:45 10° SSW 05:19:14 12° S 05:21:19 10° SSE
Sich 1 Rocket 3.7 05:15:54 10° S 05:20:17 78° E 05:24:40 10° N
Centaur D-1AR AC-48 3.7 05:07:46 10° W 05:22:26 35° SSW 05:26:50 10° SE
CZ-2D R/B 3.6 05:19:28 10° NNW 05:23:17 21° WNW 05:26:39 12° WSW
Cosmos 389 Rocket 2.5 05:20:25 10° NNW 05:24:05 64° W 05:27:43 10° S
Cosmos 2227 Rocket 2.7 05:19:29 10° S 05:25:01 60° ESE 05:30:34 10° NNE
Cosmos 1782 3.4 05:22:10 10° N 05:26:08 59° E 05:30:03 10° SSE
Cosmos 2360 Rocket 2.7 05:22:04 10° NW 05:27:12 37° WSW 05:32:19 10° S
SL-16 R/B 3.6 05:22:43 10° SSW 05:27:42 25° W 05:32:43 10° NW
Cosmos 1125 Rocket 4.1 05:24:11 10° S 05:29:19 58° ESE 05:34:31 10° NNE
Cosmos 1356 Rocket 3.7 05:25:17 10° S 05:29:23 69° E 05:33:26 10° NNE
Cosmos 1295 Rocket 4.5 05:24:46 10° S 05:30:51 89° W 05:37:03 10° N
Cosmos 1937 Rocket 4.3 05:27:44 12° SW 05:32:05 34° WNW 05:36:55 10° N
Intercosmos 24 Rocket 4.3 05:28:59 10° SSW 05:33:17 70° W 05:36:51 10° N
CZ-4B R/B 3.7 05:29:00 10° N 05:34:10 45° WNW 05:39:26 10° SW
Cosmos 1862 4.1 05:31:59 10° S 05:35:52 54° E 05:39:45 10° NNE
Feng Yun 1-1 Rocket 4.5 05:33:00 10° NNE 05:38:48 85° ESE 05:44:42 10° SSW
Cosmos 2333 4.2 05:33:25 10° NNW 05:39:06 89° WSW 05:44:48 10° SSE
Iridium 4 Rocket 3.2 05:35:16 10° N 05:39:30 75° E 05:43:38 10° S
Cosmos 1340 Rocket 3.1 05:38:55 10° SSW 05:42:52 51° W 05:46:48 10° N
Cosmos 1908 Rocket 3.5 05:39:06 10° S 05:43:31 75° W 05:47:56 10° N
Meteor 1-31 Rocket 4.5 05:40:36 10° NNE 05:44:07 34° E 05:47:39 10° SSE
Cosmos 1606 3.7 05:40:42 10° N 05:44:24 51° E 05:48:04 10° SSE
Meteor 2-10 Rocket 3.6 05:39:34 10° NNW 05:44:33 59° W 05:49:41 10° S
FALCON 9 R/B 0.6 05:43:25 10° WNW 05:45:36 76° NNE 05:49:17 10° E
Okean O Rocket 3.2 05:45:19 10° NNW 05:48:23 19° WNW 05:51:27 10° WSW
